Location: Heiligenberg
(48.5381°N, 7.3897°E)
Time: 03:17:55
(UTC+00:00)

Cosmos 1867 - Visible Passes

Search period start: 07 October 2022 00:00
Search period end: 17 October 2022 00:00
Orbit: 777 x 799 km, 65.0° (Epoch: 06 October)

Date Brightness Start Highest point End Pass type
(mag) Time Alt. Az. Time Alt. Az. Time Alt. Az.
07 Oct 5.8 17:39:11 10° NW 17:42:03 14° N 17:44:55 10° NNE visible
07 Oct 5.3 19:23:56 10° NNW 19:27:49 19° NNE 19:28:31 19° NNE visible
07 Oct 5.7 21:07:14 10° NNW 21:09:10 22° NNW 21:09:10 22° NNW visible
08 Oct 5.4 18:52:12 10° NNW 18:55:47 17° NNE 18:57:35 15° NE visible
08 Oct 5.3 20:35:33 10° NNW 20:38:13 27° NNW 20:38:13 27° NNW visible
09 Oct 5.6 18:20:25 10° NNW 18:23:43 16° NNE 18:26:39 11° NE visible
09 Oct 5.0 20:03:53 10° NNW 20:07:18 30° N 20:07:18 30° N visible
09 Oct 6.4 21:47:26 10° NW 21:47:57 13° NW 21:47:57 13° NW visible
10 Oct 5.7 17:48:35 10° NNW 17:51:38 15° N 17:54:42 10° NE visible
10 Oct 4.8 19:32:12 10° NNW 19:36:24 29° NNE 19:36:24 29° NNE visible
10 Oct 6.0 21:15:38 10° NW 21:17:03 19° NW 21:17:03 19° NW visible
11 Oct 5.7 17:16:39 10° NNW 17:19:33 14° N 17:22:25 10° NE visible
11 Oct 4.9 19:00:32 10° NNW 19:05:04 26° NNE 19:05:32 25° NE visible
11 Oct 5.5 20:43:52 10° NW 20:46:11 26° NW 20:46:11 26° NW visible
12 Oct 5.0 18:28:51 10° NNW 18:33:06 22° NNE 18:34:42 20° NE visible
12 Oct 4.9 20:12:08 10° NW 20:15:21 36° NNW 20:15:21 36° NNW visible
13 Oct 5.2 17:57:09 10° NNW 18:01:05 20° NNE 18:03:53 14° ENE visible
13 Oct 4.3 19:40:26 10° NNW 19:44:32 45° N 19:44:32 45° N visible
13 Oct 6.3 21:24:29 10° NW 21:25:12 13° WNW 21:25:12 13° WNW visible
14 Oct 5.3 17:25:25 10° NNW 17:29:03 18° NNE 17:32:40 10° ENE visible
14 Oct 4.1 19:08:45 10° NNW 19:13:46 45° NE 19:13:46 45° NE visible
14 Oct 5.8 20:52:31 10° NW 20:54:26 21° WNW 20:54:26 21° WNW visible
15 Oct 4.2 18:37:04 10° NNW 18:42:09 37° NE 18:43:03 35° ENE visible
15 Oct 5.2 20:20:40 10° NW 20:23:43 32° WNW 20:23:43 32° WNW visible
16 Oct 4.5 18:05:24 10° NNW 18:10:15 31° NE 18:12:21 24° ENE visible
16 Oct 4.3 19:48:51 10° NW 19:53:02 51° WNW 19:53:02 51° WNW visible
